Content
SEND FEEDBACK

Daily
Averages
Monthly
Summary
Tunisia

HAWMAT AS SUQ, TUNISIA


Home > Africa > Tunisia
Elevation: 13 feet     Latitude: 33 52N     Longitude: 010 46E

WEATHER
 
SELECT A DAY
Number of Records: 232,843;   Date Range: 2/20/97 - 9/19/14
 
SHARE

PRINT THIS DATA

[ ← Previous Day ]
WEATHER ALMANAC - JANUARY 31, 2013
[ Next Day → ]
[ °C ]   °F
Weather ElementAverageHighLow
Temperature60.5 °F68 °F (2:30 pm)55.4 °F (6:30 am)
Dewpoint41.7 °F48.2 °F (11:00 pm)37.4 °F (3:30 pm)
Humidity49.1 %67 % (11:00 pm)23 % (4:00 pm)
Barometer30.29 in30.32 in (10:00 am)30.24 in (4:30 pm)
Wind Speed10.3 mph16.1 mph (5:00 am)
Weather ElementAverage
Visibility5.7 mi
Wind DirectionW (271.4 °)

Weather ElementTotal
Precipitation---
Heating Degree Days3.3 (Base 65)
Growing Degree Days11.7 (Base 50)
Averaged from 50 records on January 31, 2013
WEATHER CONDITIONS BREAKOUT
WIND DIRECTION BREAKOUT
WEATHER BY HOUR - JANUARY 31, 2013
[ °C ]   °F
Local TimeTemperatureDewpointHumidityBarometerVisibilityWind DirectionWind SpeedGust SpeedPrecipitationEventsConditions
12:30 AM59.0 °F42.8 °F55 %30.30 in6.2 miWest (280°)11.5 mphPartly Cloudy
1:00 AM57.0 °F43.0 °F49 %30.30 in5.0 miWest (280°)11.5 mphScattered Clouds
1:00 AM57.2 °F42.8 °F59 %30.30 in5.0 miWest (280°)11.5 mphPartly Cloudy
3:00 AM57.2 °F42.8 °F59 %30.30 in5.0 miWest (280°)13.8 mphPartly Cloudy
4:00 AM56.0 °F41.0 °F47 %30.28 in5.0 miWNW (290°)13.8 mphScattered Clouds
4:00 AM57.2 °F41.0 °F55 %30.27 in5.0 miWNW (290°)13.8 mphPartly Cloudy
4:30 AM57.2 °F41.0 °F55 %30.27 in5.0 miWNW (290°)13.8 mphPartly Cloudy
5:00 AM57.2 °F41.0 °F55 %30.27 in5.0 miWNW (290°)16.1 mphPartly Cloudy
6:00 AM57.2 °F41.0 °F55 %30.27 in5.0 miWNW (290°)16.1 mphPartly Cloudy
6:30 AM55.4 °F42.8 °F63 %30.27 in5.0 miWNW (290°)16.1 mphPartly Cloudy
7:00 AM56.0 °F41.0 °F46 %30.29 in5.0 miWNW (290°)16.1 mphScattered Clouds
7:00 AM55.4 °F41.0 °F58 %30.27 in5.0 miWNW (290°)16.1 mphPartly Cloudy
7:30 AM55.4 °F42.8 °F63 %30.27 in5.0 miWNW (290°)16.1 mphPartly Cloudy
8:00 AM57.2 °F41.0 °F55 %30.27 in5.0 miWNW (290°)13.8 mphPartly Cloudy
8:30 AM57.2 °F41.0 °F55 %30.27 in5.0 miWNW (290°)13.8 mphPartly Cloudy
9:00 AM59.0 °F42.8 °F55 %30.30 in6.2 miWNW (300°)13.8 mphPartly Cloudy
9:30 AM59.0 °F42.8 °F55 %30.30 in6.2 miWNW (300°)13.8 mphPartly Cloudy
10:00 AM59.0 °F41.0 °F39 %30.32 in6.0 miWNW (290°)11.5 mphScattered Clouds
10:00 AM59.0 °F41.0 °F51 %30.30 in6.2 miWNW (290°)11.5 mphPartly Cloudy
10:30 AM59.0 °F42.8 °F55 %30.30 in6.2 miWNW (300°)13.8 mphPartly Cloudy
11:00 AM59.0 °F42.8 °F55 %30.30 in6.2 miWNW (300°)13.8 mphPartly Cloudy
11:30 AM59.0 °F42.8 °F55 %30.30 in6.2 miWNW (300°)13.8 mphPartly Cloudy
12:00 PM60.8 °F39.2 °F45 %30.30 inWNW (300°)11.5 mphClear
12:30 PM60.8 °F41.0 °F48 %30.30 inWNW (300°)11.5 mphClear
1:00 PM62.6 °F41.0 °F45 %30.27 inWNW (290°)11.5 mphClear
1:00 PM63.0 °F41.0 °F32 %30.30 in6.0 miWNW (290°)11.5 mphClear
1:30 PM64.4 °F41.0 °F42 %30.27 inWNW (300°)13.8 mphClear
2:00 PM64.4 °F41.0 °F42 %30.27 in6.2 miNW (310°)13.8 mphPartly Cloudy
2:30 PM68.0 °F39.2 °F35 %30.27 in6.2 miWNW (300°)11.5 mphPartly Cloudy
3:00 PM66.2 °F39.2 °F37 %30.27 in6.2 miWNW (300°)11.5 mphPartly Cloudy
3:30 PM68.0 °F37.4 °F33 %30.27 in6.2 miWNW (300°)11.5 mphPartly Cloudy
4:00 PM68.0 °F37.4 °F33 %30.27 in6.2 miWNW (300°)9.2 mphPartly Cloudy
4:00 PM67.0 °F38.0 °F23 %30.27 in6.0 miWNW (300°)9.2 mphScattered Clouds
4:30 PM68.0 °F39.2 °F35 %30.24 in6.2 miWNW (290°)9.2 mphPartly Cloudy
5:00 PM68.0 °F37.4 °F33 %30.24 in6.2 miWNW (290°)6.9 mphPartly Cloudy
5:30 PM64.4 °F41.0 °F42 %30.27 in6.2 miWNW (300°)4.6 mphPartly Cloudy
6:00 PM62.6 °F42.8 °F48 %30.27 inCalmClear
6:30 PM62.6 °F42.8 °F48 %30.27 inWNW (290°)2.3 mphClear
7:00 PM60.0 °F42.0 °F41 %30.30 in6.0 miCalmClear
7:00 PM60.8 °F42.8 °F52 %30.27 inCalmClear
7:30 PM59.0 °F41.0 °F51 %30.30 inCalmClear
8:00 PM59.0 °F41.0 °F51 %30.30 inCalmClear
8:30 PM62.6 °F41.0 °F45 %30.30 inWNW (290°)2.3 mphClear
9:00 PM60.8 °F44.6 °F55 %30.30 inWNW (300°)6.9 mphClear
9:30 PM60.8 °F44.6 °F55 %30.30 inNW (310°)9.2 mphClear
10:00 PM60.0 °F44.0 °F45 %30.32 in6.0 miWNW (300°)9.2 mphClear
10:00 PM60.8 °F44.6 °F55 %30.30 inWNW (300°)9.2 mphClear
10:30 PM60.8 °F44.6 °F55 %30.30 inWNW (300°)9.2 mphClear
11:00 PM59.0 °F48.2 °F67 %30.30 inNNW (330°)6.9 mphClear
11:30 PM59.0 °F48.2 °F67 %30.30 inNW (320°)6.9 mphClear
Hourly data recorded from DTTJ, located miles away from Hawmat As Suq, Tunisia







STORIES FROM OUR PARTNERS